Davenport, IA

7:58 PM CDT on September 26, 2016 (GMT -0500)
Davenport Municipal

Weather History for KDVN - September, 2013

Change the Weather History Date:

Monday, September 16, 2013

  Actual Average Record
Temperature  
Mean Temperature 60 °F 63 °F  
Max Temperature 69 °F 75 °F 89 °F (1955)
Min Temperature 50 °F 51 °F 38 °F (2014)
Degree Days  
Heating Degree Days 5 4  
Month to date heating degree days 30 35  
Since 1 July heating degree days 49 49  
Cooling Degree Days 0 2  
Month to date cooling degree days 109 50  
Year to date cooling degree days 882 754  
Growing Degree Days 10 (Base 50)    
Moisture  
Dew Point 49 °F    
Average Humidity 71    
Maximum Humidity 100    
Minimum Humidity 42    
Precipitation  
Precipitation 0.00 in 0.10 in 1.17 in (1983)
Month to date precipitation 0.81 1.53  
Year to date precipitation 29.20 27.35  
Snow  
Snow 0.00 in - - ()
Month to date snowfall 0.0  
Since 1 July snowfall 0.0  
Since 1 September snowfall 0.0  
Snow Depth 0.00 in    
Sea Level Pressure  
Sea Level Pressure 30.32 in    
Wind  
Wind Speed 8 mph (ENE)    
Max Wind Speed 14 mph    
Max Gust Speed 18 mph    
Visibility 9 miles    
Events      
T = Trace of Precipitation, MM = Missing Value Source: NWS Daily Summary

Daily Weather History Graph

Daily Weather History Graph

Search for Another Location

Airport or City:

Trip Planner

Search our weather history database for the weather conditions in past years. The results will help you decide how hot, cold, wet, or windy it might be!

Date:

Astronomy

Sep. 16, 2013 Rise Set
Actual Time 6:43 AM CDT 7:09 PM CDT
Civil Twilight 6:16 AM CDT 7:37 PM CDT
Nautical Twilight 5:43 AM CDT 8:10 PM CDT
Astronomical Twilight 5:09 AM CDT 8:43 PM CDT
Moon 5:20 PM CDT (9/16) 3:28 AM CDT (9/16)
Length of Visible Light 13h 21m
Length of Day
12h 25m
Waxing Gibbous, 90% of the Moon is Illuminated
Sep 16
Waxing Gibbous
Sep 19
Full
Sep 26
Last Quarter
Oct 4
New
Oct 11
First Quarter

Hourly Weather History & Observations

Time (CDT) Temp. Dew Point Humidity Pressure Visibility Wind Dir Wind Speed Gust Speed Precip Events Conditions
12:52 AM 52.0 °F 50.0 °F 93% 30.23 in 6.0 mi North 6.9 mph - N/A   Clear
1:52 AM 51.1 °F 48.9 °F 92% 30.24 in 5.0 mi North 6.9 mph - N/A   Clear
2:52 AM 51.1 °F 48.9 °F 92% 30.26 in 6.0 mi NNE 5.8 mph - N/A   Clear
3:52 AM 52.0 °F 51.1 °F 97% 30.27 in 7.0 mi NE 5.8 mph - N/A   Partly Cloudy
4:40 AM 53.6 °F 51.8 °F 94% 30.28 in 8.0 mi NE 8.1 mph - N/A   Mostly Cloudy
4:52 AM 54.0 °F 52.0 °F 93% 30.28 in 9.0 mi NE 12.7 mph - N/A   Overcast
5:52 AM 55.0 °F 52.0 °F 89% 30.30 in 10.0 mi ENE 8.1 mph - N/A   Overcast
6:30 AM 53.6 °F 51.8 °F 94% 30.31 in 10.0 mi NE 5.8 mph - N/A   Overcast
6:52 AM 55.0 °F 52.0 °F 89% 30.32 in 10.0 mi ENE 9.2 mph - N/A   Overcast
7:15 AM 55.4 °F 51.8 °F 88% 30.33 in 10.0 mi ENE 9.2 mph - N/A   Overcast
7:37 AM 55.4 °F 51.8 °F 88% 30.34 in 10.0 mi ENE 8.1 mph - N/A   Overcast
7:52 AM 55.0 °F 52.0 °F 89% 30.35 in 10.0 mi ENE 8.1 mph - N/A   Overcast
8:19 AM 55.4 °F 51.8 °F 88% 30.36 in 10.0 mi NE 11.5 mph - N/A   Overcast
8:52 AM 54.0 °F 50.0 °F 86% 30.36 in 10.0 mi ENE 12.7 mph - N/A   Overcast
9:52 AM 55.0 °F 48.9 °F 80% 30.38 in 10.0 mi ENE 11.5 mph - N/A   Overcast
10:52 AM 55.0 °F 48.0 °F 77% 30.39 in 10.0 mi ENE 10.4 mph - N/A   Overcast
11:20 AM 57.2 °F 48.2 °F 72% 30.40 in 10.0 mi East 11.5 mph - N/A   Overcast
11:52 AM 61.0 °F 48.9 °F 64% 30.39 in 10.0 mi ENE 8.1 mph - N/A   Mostly Cloudy
12:06 PM 60.8 °F 48.2 °F 63% 30.38 in 10.0 mi ENE 5.8 mph - N/A   Scattered Clouds
12:52 PM 63.0 °F 48.0 °F 58% 30.38 in 10.0 mi Variable 5.8 mph - N/A   Clear
1:52 PM 66.0 °F 48.0 °F 52% 30.35 in 10.0 mi East 6.9 mph - N/A   Clear
2:52 PM 68.0 °F 48.9 °F 50% 30.32 in 10.0 mi NE 4.6 mph - N/A   Clear
3:52 PM 68.0 °F 46.0 °F 45% 30.31 in 10.0 mi Variable 5.8 mph - N/A   Clear
4:52 PM 68.0 °F 45.0 °F 43% 30.30 in 10.0 mi NE 8.1 mph - N/A   Clear
5:52 PM 66.9 °F 46.0 °F 47% 30.29 in 10.0 mi ENE 5.8 mph - N/A   Clear
6:52 PM 59.0 °F 46.9 °F 64% 30.28 in 10.0 mi ENE 4.6 mph - N/A   Clear
7:52 PM 54.0 °F 46.0 °F 75% 30.30 in 10.0 mi ENE 4.6 mph - N/A   Clear
8:52 PM 53.1 °F 46.0 °F 77% 30.29 in 10.0 mi East 6.9 mph - N/A   Clear
9:52 PM 55.0 °F 46.9 °F 74% 30.31 in 10.0 mi East 8.1 mph - N/A   Clear
10:52 PM 54.0 °F 46.9 °F 77% 30.31 in 10.0 mi East 10.4 mph - N/A   Clear
11:52 PM 53.1 °F 46.0 °F 77% 30.32 in 10.0 mi ESE 8.1 mph - N/A   Clear